Tracking 31027 objects as of 19-Jul-2025
HD Live streaming from Space Station
objects crossing your sky now

CZ-2C R/B

Track CZ-2C R/B now!
10-day predictions


NORAD ID: 58916
Int'l Code: 2024-023M
Perigee: 598.5 km
Apogee: 733.2 km
Inclination: 49.9 °
Period: 97.9 minutes
Semi major axis: 7036 km
RCS: Unknown
Launch date: February 2, 2024
Source: People's Republic of China (PRC)
Launch site: Xichang Space Center, China (XSC)

Note: This is a ROCKET BODY
Your satellite tracking list
Your tracking list is empty




NASA's NSSDC Master Catalog

Two Line Element Set (TLE):
1 58916U 24023M   25199.33956102  .00000342  00000-0  86448-4 0  9998
2 58916  49.8951 182.0607 0095738  83.4397 277.7422 14.70745112 78151
Source of the keplerian elements: AFSPC